Regional Weather Roundup
Issued by NWS

Home | Current Version | Previous Version | Graphics & Text | Print | Product List | Glossary On
Versions: 1 2 3 4 5 6 7 8 9 10 11 12 13 14 15 16 17 18 19 20 21 22 23 24 25 26 27 28 29 30 31 32 33 34 35 36 37 38 39 40 41 42 43 44 45 46 47 48 49 50
890
ASUS45 KABQ 302001
RWRNM
NEW MEXICO REGIONAL WEATHER ROUNDUP
NATIONAL WEATHER SERVICE ALBUQUERQUE NM
200 PM MDT SAT JUL 30 2016

NOTE: "FAIR" MEANS FEW OR NO CLOUDS BELOW 12,000 FEET AGL WITH NO
       SIGNIFICANT WEATHER OR OBSTRUCTIONS TO VISION.

      THIS PRODUCT IS RELEASED AS TWO VERSIONS.  ONE VERSION NEAR
      THE TOP OF THE HOUR CONTAINING PRELIMINARY DATA FROM ALBUQUERQUE
      AND OTHER STATIONS.  A FINAL VERSION WITH ADDITIONAL DATA IS
      ISSUED ABOUT 10 MINUTES AFTER THE HOUR.

NMZ501-503-504-510>518-302100-
NORTHWEST PLATEAU/NORTHCENTRAL MOUNTAINS

CITY           SKY/WX    TMP DP  RH WIND       PRES   REMARKS
FARMINGTON     FAIR      91  39  16 CALM      30.06F
LOS ALAMOS     FAIR      79  45  30 S8        30.24F
SANTA FE       FAIR      89  46  22 W9G21     30.17F
TAOS           FAIR      84  43  23 NW7       30.21F
ANGEL FIRE     FAIR      77  38  24 SW14      30.30F

$$
NMZ402-403-502-505>509-302100-
WESTCENTRAL MOUNTAINS/SOUTHWEST MOUNTAINS

CITY           SKY/WX    TMP DP  RH WIND       PRES   REMARKS
GALLUP         FAIR      92  43  18 W12G21    30.16F
GRANTS         FAIR      90  38  15 W5        30.18F
SILVER CITY    FAIR      87  51  28 S6        30.14F

$$
NMZ407-409-411-412-302100-
SOUTHERN DESERTS

CITY           SKY/WX    TMP DP  RH WIND       PRES   REMARKS
LORDSBURG      FAIR      91  52  25 SE8G17    30.04F
DEMING         FAIR      93  53  25 VRB3      30.05F
LAS CRUCES     FAIR      94  49  21 SE7       30.08F
HOLLOMAN AFB   FAIR      93  52  24 VRB7      30.02F
ALAMOGORDO     FAIR      93  50  22 S8        30.05F
T OR C         FAIR      89  53  29 W6        30.08F

$$
NMZ519>523-302100-
CENTRAL VALLEYS/CENTRAL HIGHLANDS

CITY           SKY/WX    TMP DP  RH WIND       PRES   REMARKS
ALBUQUERQUE    FAIR      87  49  26 SW7       30.11F
DOUBLE EAGLE   MOSUNNY   88  52  29 VRB7      30.15F
MORIARTY ARPT  FAIR      87  48  25 SW8       30.18F
CLINES CORNERS FAIR      83  49  30 SW14G21   30.25F
BELEN          FAIR      91  42  18 SE3       30.10F
SOCORRO        FAIR      93  49  22 S18G30    30.08F

$$
NMZ524>526-539-540-302100-
SOUTHCENTRAL MOUNTAINS

CITY           SKY/WX    TMP DP  RH WIND       PRES   REMARKS
RUIDOSO        NOT AVBL

$$
NMZ527>531-302100-
NORTHEAST HIGHLANDS/NORTHEAST PLAINS

CITY           SKY/WX    TMP DP  RH WIND       PRES   REMARKS
LAS VEGAS      FAIR      80  44  27 SW13G24   30.21S
RATON          FAIR      84  48  28 VRB3      30.11F
CLAYTON        FAIR      88  60  38 SW22G31   30.06F

$$
NMZ532>537-302100-
EASTCENTRAL PLAINS

CITY           SKY/WX    TMP DP  RH WIND       PRES   REMARKS
TUCUMCARI      FAIR      96  53  23 SW18G25   30.01F
CANNON AFB     FAIR      91  56  30 S13G21    30.08F
CLOVIS AIRPORT FAIR      90  57  33 S18       30.08F

$$
NMZ028-029-538-302100-
SOUTHEAST PLAINS

CITY           SKY/WX    TMP DP  RH WIND       PRES   REMARKS
ROSWELL        FAIR      94  54  25 SE13G24   30.03F
ARTESIA        FAIR      91  57  31 S16       30.03F
CARLSBAD       FAIR      91  56  30 VRB7      30.01F
HOBBS          MOSUNNY   91  54  27 SE15      30.06F


$$




USA.gov is the U.S. government's official web portal to all federal, state and local government web resources and services.